FW6343 Weather Reports


time (UTC)temp
F
wind
direction
speed
knots
gust
knots
rain 1hr
in
rain 24hr
in
rain mn
in
humidity
%
barometer
mb
20260906081928 70 0 0.0 0.0 0.00 0.00 0.00 90 1013.2
20260906080453 70 0 0.0 0.0 0.00 0.00 0.00 89 1013.1
20260906080341 70 0 0.0 0.0 0.00 0.00 0.00 89 1013.1
20260906074858 70 0 0.0 0.0 0.00 0.00 0.00 89 1013.0
20260906073422 70 0 0.0 0.0 0.00 0.00 0.00 89 1013.0
20260906072000 70 0 0.0 0.0 0.00 0.00 0.00 88 1013.2
20260906070528 71 0 0.0 0.0 0.00 0.00 0.00 88 1013.2
20260906070337 71 0 0.0 0.0 0.00 0.00 0.00 88 1013.2
20260906065023 71 0 0.0 0.0 0.00 0.00 0.00 88 1013.1
20260906064835 71 0 0.0 0.0 0.00 0.00 0.00 88 1013.1
20260906063423 71 0 0.0 0.0 0.00 0.00 0.00 88 1013.2
20260906061827 71 0 0.0 0.0 0.00 0.00 0.00 87 1013.6
20260906060419 71 0 0.0 0.0 0.00 0.00 0.00 87 1013.7
20260906054953 72 0 0.0 0.0 0.00 0.00 0.00 87 1013.9
20260906053424 72 0 0.0 0.0 0.00 0.00 0.00 87 1014.1
20260906051924 72 0 0.0 0.0 0.00 0.00 0.00 87 1014.2
20260906050440 72 0 0.0 0.0 0.00 0.00 0.00 86 1014.2
20260906045016 73 0 0.0 0.0 0.00 0.00 0.00 87 1014.3
20260906044837 73 0 0.0 0.0 0.00 0.00 0.00 87 1014.3
20260906043421 73 0 0.0 0.0 0.00 0.00 0.00 87 1014.2
20260906041918 73 0 0.0 0.0 0.00 0.00 0.00 87 1014.2
20260906040453 73 0 0.0 0.0 0.00 0.00 0.00 86 1014.4
20260906034919 73 0 0.0 0.0 0.00 0.00 0.00 85 1014.5
20260906033425 73 0 0.0 0.0 0.00 0.00 0.00 85 1014.3
20260906032023 74 0 0.0 0.0 0.00 0.00 0.00 84 1014.5
20260906031921 74 0 0.0 0.0 0.00 0.00 0.00 84 1014.5
20260906030519 74 0 0.0 0.9 0.00 0.00 0.00 84 1014.4
20260906030348 74 0 0.0 0.9 0.00 0.00 0.00 84 1014.4
20260906024921 74 0 0.0 0.9 0.00 0.00 0.00 84 1014.2
20260906023515 74 0 0.0 0.0 0.00 0.00 0.00 84 1013.9
20260906023352 74 0 0.0 0.0 0.00 0.00 0.00 84 1013.9
20260906022003 74 0 0.0 0.0 0.00 0.00 0.00 84 1014.0
20260906021834 74 0 0.0 0.0 0.00 0.00 0.00 84 1014.0
20260906020516 75 0 0.0 0.0 0.00 0.00 0.00 83 1014.3
20260906020355 75 0 0.0 0.0 0.00 0.00 0.00 83 1014.3
20260906014958 75 0 0.0 0.0 0.00 0.00 0.00 81 1014.2
20260906014843 75 0 0.0 0.0 0.00 0.00 0.00 81 1014.2
20260906013452 76 0 0.0 0.0 0.00 0.00 0.00 80 1013.9
20260906011856 77 0 0.0 0.0 0.00 0.00 0.00 79 1014.0
20260906010430 78 0 0.0 0.0 0.00 0.00 0.00 77 1013.8
20260906005040 78 0 0.0 0.0 0.00 0.00 0.00 75 1013.5
20260906004841 78 0 0.0 0.0 0.00 0.00 0.00 75 1013.5
20260906003520 79 0 0.0 0.9 0.00 0.00 0.00 73 1013.1
20260906003341 79 0 0.0 0.9 0.00 0.00 0.00 73 1013.1
20260906001918 79 0 0.0 0.0 0.00 0.00 0.00 72 1013.0
20260906000352 80 0 0.0 0.0 0.00 0.00 0.00 72 1013.1
20260905234942 81 0 0.0 0.0 0.00 0.00 0.00 72 1013.2
20260905233342 81 0 0.0 0.0 0.00 0.00 0.00 71 1013.1
20260905232020 82 0 0.0 0.0 0.00 0.00 0.00 71 1013.3
20260905230434 81 0 0.0 0.0 0.00 0.00 0.00 70 1013.2
20260905224947 81 0 0.0 1.7 0.00 0.00 0.00 70 1013.0
20260905223451 81 0 0.0 0.0 0.00 0.00 0.00 69 1012.9
20260905222001 81 0 0.0 0.9 0.00 0.00 0.00 69 1013.3
20260905220351 82 0 0.0 0.9 0.00 0.00 0.00 68 1013.3
20260905214932 82 0 0.0 1.7 0.00 0.00 0.00 68 1013.3
20260905213439 82 0 0.0 0.9 0.00 0.00 0.00 67 1013.4
20260905211955 82 0 0.0 0.9 0.00 0.00 0.00 67 1013.6
20260905211843 82 0 0.0 0.9 0.00 0.00 0.00 67 1013.6
20260905210442 82 0 0.0 5.2 0.00 0.00 0.00 70 1013.5
20260905204921 81 197 0.0 4.3 0.00 0.00 0.00 69 1013.7
20260905203404 81 0 0.0 0.9 0.00 0.00 0.00 69 1013.5
20260905201924 80 0 0.0 3.5 0.00 0.00 0.00 71 1014.0
20260905200507 81 0 2.6 9.6 0.00 0.00 0.00 66 1013.6
20260905195032 83 115 0.0 6.1 0.00 0.00 0.00 63 1014.6
20260905194921 83 115 0.0 6.1 0.00 0.00 0.00 63 1014.6
20260905193439 85 0 0.0 13.0 0.00 0.00 0.00 60 1014.6
20260905193335 85 0 0.0 13.0 0.00 0.00 0.00 60 1014.6
20260905190417 96 0 1.7 6.1 0.00 0.00 0.00 48 1013.4
20260905184856 96 0 0.0 0.9 0.00 0.00 0.00 44 1013.0
20260905183516 97 0 0.0 4.3 0.00 0.00 0.00 43 1013.1
20260905183351 97 0 0.0 4.3 0.00 0.00 0.00 43 1013.1
20260905181926 98 0 0.0 4.3 0.00 0.00 0.00 44 1013.3
20260905180524 97 228 3.5 7.8 0.00 0.00 0.00 45 1013.7
20260905180419 97 228 3.5 7.8 0.00 0.00 0.00 45 1013.7
20260905175019 96 0 0.0 7.0 0.00 0.00 0.00 45 1013.8
20260905174912 96 0 0.0 7.0 0.00 0.00 0.00 45 1013.8
20260905173416 96 0 0.0 6.1 0.00 0.00 0.00 45 1013.9
20260905172007 95 0 0.0 3.5 0.00 0.00 0.00 45 1013.8
20260905171858 95 0 0.0 3.5 0.00 0.00 0.00 45 1013.8
20260905170518 95 185 1.7 8.7 0.00 0.00 0.00 46 1014.1
20260905170343 95 185 1.7 8.7 0.00 0.00 0.00 46 1014.1
20260905165019 95 0 1.7 5.2 0.00 0.00 0.00 49 1014.4
20260905164845 95 0 1.7 5.2 0.00 0.00 0.00 49 1014.4
20260905163419 94 0 1.7 6.1 0.00 0.00 0.00 49 1014.7
20260905162035 93 279 2.6 6.1 0.00 0.00 0.00 53 1014.7
20260905161841 93 279 2.6 6.1 0.00 0.00 0.00 53 1014.7
20260905160418 93 0 0.9 4.3 0.00 0.00 0.00 53 1014.8
20260905155024 91 0 0.0 0.0 0.00 0.00 0.00 55 1015.2
20260905154917 91 0 0.0 0.0 0.00 0.00 0.00 55 1015.2
20260905153528 90 0 0.0 0.0 0.00 0.00 0.00 56 1015.4
20260905153359 90 0 0.0 0.0 0.00 0.00 0.00 56 1015.4
20260905151918 90 0 0.0 0.9 0.00 0.00 0.00 59 1015.4
20260905150546 89 0 0.0 0.0 0.00 0.00 0.00 60 1015.4
20260905150348 89 0 0.0 0.0 0.00 0.00 0.00 60 1015.4
20260905144930 88 0 0.0 3.5 0.00 0.00 0.00 61 1015.4
20260905143518 87 0 0.0 3.5 0.00 0.00 0.00 65 1015.5
20260905143359 87 0 0.0 3.5 0.00 0.00 0.00 65 1015.5
20260905141916 85 0 0.0 0.0 0.00 0.00 0.00 68 1015.7
20260905140502 84 0 0.0 0.0 0.00 0.00 0.00 69 1015.8
20260905134930 82 0 0.0 0.0 0.00 0.00 0.00 75 1015.9
20260905133447 80 0 0.0 0.9 0.00 0.00 0.00 77 1016.0
20260905133343 80 0 0.0 0.9 0.00 0.00 0.00 77 1016.0
20260905131922 78 0 0.0 0.0 0.00 0.00 0.00 85 1015.9
20260905130356 76 0 0.0 0.0 0.00 0.00 0.00 89 1015.9
20260905124937 75 0 0.0 0.0 0.00 0.00 0.00 90 1015.7
20260905123533 74 0 0.0 0.0 0.00 0.00 0.00 91 1015.9
20260905123418 74 0 0.0 0.0 0.00 0.00 0.00 91 1015.9
20260905121928 73 0 0.0 0.0 0.00 0.00 0.00 90 1015.8
20260905120401 72 0 0.0 0.0 0.00 0.00 0.00 90 1015.6
20260905115004 72 0 0.0 0.0 0.00 0.00 0.00 89 1015.5
20260905113458 72 0 0.0 0.0 0.00 0.00 0.00 89 1015.3
20260905113326 72 0 0.0 0.0 0.00 0.00 0.00 89 1015.3
20260905112026 72 0 0.0 0.0 0.00 0.00 0.00 89 1015.2
20260905111845 72 0 0.0 0.0 0.00 0.00 0.00 89 1015.2
20260905110530 73 0 0.0 0.0 0.00 0.00 0.00 89 1015.1
20260905110420 73 0 0.0 0.0 0.00 0.00 0.00 89 1015.1
20260905104918 73 0 0.0 0.0 0.00 0.00 0.00 89 1015.0
20260905103426 73 0 0.0 0.0 0.00 0.00 0.00 89 1014.9
20260905101936 73 0 0.0 0.0 0.00 0.00 0.00 89 1014.8
20260905100522 73 0 0.0 0.0 0.00 0.00 0.00 89 1014.9
20260905100404 73 0 0.0 0.0 0.00 0.00 0.00 89 1014.9
20260905094927 73 0 0.0 0.0 0.00 0.00 0.00 88 1014.8
20260905093525 73 0 0.0 0.0 0.00 0.00 0.00 88 1014.7
20260905093354 73 0 0.0 0.0 0.00 0.00 0.00 88 1014.7
20260905091921 74 0 0.0 0.0 0.00 0.00 0.00 88 1014.7
20260905090538 74 0 0.0 0.0 0.00 0.00 0.00 88 1014.9
20260905090423 74 0 0.0 0.0 0.00 0.00 0.00 88 1014.9
20260905084943 74 0 0.0 0.0 0.00 0.00 0.00 88 1014.8
20260905083419 74 0 0.0 0.0 0.00 0.00 0.00 87 1014.9